BSAT-4A

Last updated on Thu Nov 21 2024 00:02:43 GMT+0000 (Coordinated Universal Time)

1 42951U 17059B 24324.55035387 -.00000349 00000+0 00000+0 0 9999 2 42951 0.0575 61.5362 0000859 279.8228 25.6902 1.00272040 26034
UTC large
Height (km)
Speed (km/s)
/
Latitude / Longitude
Inclination (degrees)
Orbital Period (minutes)
Azimuth
Elevation
Range (km)
Doppler Factor

Next 0 passes for location: London (51.5072 / 0.1276)

Sorry there are no passes over London.